Simultaneous Nadir Overpasses (SNOs) Predictions

Prediction of SNOs between NOAA-20 and NOAA-19 Satellite Orbit:

Table of predicted SNOs for the next 14.0 days since TLE Epoch: 5/3/2019
Index Date (NOAA-20) Time (NOAA-20) Lat,Lon (NOAA-20) SZA (NOAA-20 ) Date (NOAA-19) Time (NOAA-19) Lat,Lon (NOAA-19) SZA (NOAA-19 ) Distance(km) Time Diff (sec)
1 05/17/2019 04:35:49 80.09, 71.43 63.11 05/17/2019 04:34:42 80.11, 71.48 63.15 2.16 67
2 05/17/2019 05:26:35 -80.12,-121.55 116.85 05/17/2019 05:25:42 -80.10,-121.43 116.85 3.29 53
3 05/17/2019 06:17:19 80.10, 46.02 63.10 05/17/2019 06:16:43 80.11, 45.93 63.14 2.13 36
4 05/17/2019 07:08:04 -80.10,-146.66 116.91 05/17/2019 07:07:42 -80.12,-146.66 116.88 2.52 22
5 05/17/2019 07:58:50 80.13, 20.30 63.15 05/17/2019 07:58:44 80.11, 20.39 63.13 3.05 6
6 05/17/2019 08:49:34 -80.10,-172.07 116.92 05/17/2019 08:49:43 -80.12,-172.20 116.90 3.00 9
7 05/17/2019 09:40:19 80.10, -4.80 63.09 05/17/2019 09:40:44 80.12, -4.84 63.09 2.37 25
8 05/17/2019 10:31:05 -80.13, 162.21 116.87 05/17/2019 10:31:44 -80.11, 162.27 116.91 2.20 39
9 05/17/2019 11:21:50 80.14, -30.52 63.13 05/17/2019 11:22:45 80.12, -30.38 63.08 3.05 55




NCC Satellite Simultaneous Nadir Overpasses (SNOs) Prediction Service
